| time (UTC) | temp F | wind direction | speed MPH | gust MPH | rain 1hr in | rain 24hr in | rain mn in | humidity % | barometer mb |
| 20260503175010 | 71 | 18 | 4.0 | 11.0 | 0.00 | 0.00 | 0.00 | 38 | 1006.3 |
| 20260503174508 | 71 | 54 | 3.0 | 11.0 | 0.00 | 0.00 | 0.00 | 37 | 1006.2 |
| 20260503174008 | 71 | 352 | 3.0 | 11.0 | 0.00 | 0.00 | 0.00 | 37 | 1006.3 |
| 20260503173508 | 71 | 344 | 4.0 | 11.0 | 0.00 | 0.00 | 0.00 | 37 | 1006.4 |
| 20260503173020 | 70 | 277 | 3.0 | 12.0 | 0.00 | 0.00 | 0.00 | 37 | 1006.4 |
| 20260503172508 | 71 | 291 | 4.0 | 15.0 | 0.00 | 0.00 | 0.00 | 38 | 1006.4 |
| 20260503172006 | 71 | 257 | 5.0 | 15.0 | 0.00 | 0.00 | 0.00 | 37 | 1006.3 |
| 20260503171521 | 70 | 312 | 4.0 | 12.0 | 0.00 | 0.00 | 0.00 | 40 | 1006.4 |
| 20260503171004 | 70 | 246 | 4.0 | 12.0 | 0.00 | 0.00 | 0.00 | 39 | 1006.2 |
| 20260503170503 | 69 | 9 | 2.0 | 12.0 | 0.00 | 0.00 | 0.00 | 41 | 1006.2 |
| 20260503151013 | 64 | 222 | 1.0 | 4.0 | 0.00 | 0.00 | 0.00 | 43 | 1005.9 |
| 20260503150503 | 64 | 352 | 1.0 | 7.0 | 0.00 | 0.00 | 0.00 | 43 | 1005.9 |
| 20260503131003 | 53 | 246 | 3.0 | 10.0 | 0.00 | 0.00 | 0.00 | 50 | 1006.0 |
| 20260503130503 | 53 | 257 | 3.0 | 10.0 | 0.00 | 0.00 | 0.00 | 50 | 1006.0 |
| 20260503110502 | 53 | 163 | 2.0 | 11.0 | 0.00 | 0.00 | 0.00 | 50 | 1005.6 |
| 20260503090504 | 55 | 138 | 2.0 | 10.0 | 0.00 | 0.00 | 0.00 | 45 | 1006.9 |
| 20260503081518 | 54 | 217 | 2.0 | 10.0 | 0.00 | 0.00 | 0.00 | 49 | 1008.3 |
| 20260503081007 | 54 | 178 | 2.0 | 6.0 | 0.00 | 0.00 | 0.00 | 49 | 1008.6 |
| 20260503080507 | 54 | 237 | 2.0 | 6.0 | 0.00 | 0.00 | 0.00 | 49 | 1008.7 |
| 20260503072507 | 54 | 236 | 2.0 | 8.0 | 0.00 | 0.00 | 0.00 | 45 | 1008.7 |
| 20260503072007 | 54 | 250 | 2.0 | 10.0 | 0.00 | 0.00 | 0.00 | 45 | 1008.6 |
| 20260503071520 | 54 | 241 | 3.0 | 10.0 | 0.00 | 0.00 | 0.00 | 45 | 1008.6 |
| 20260503071006 | 54 | 259 | 4.0 | 10.0 | 0.00 | 0.00 | 0.00 | 45 | 1008.6 |
| 20260503070509 | 54 | 255 | 4.0 | 9.0 | 0.00 | 0.00 | 0.00 | 45 | 1008.7 |
| 20260503055009 | 55 | 249 | 1.0 | 7.0 | 0.00 | 0.00 | 0.00 | 44 | 1009.4 |
| 20260503054529 | 55 | 259 | 2.0 | 8.0 | 0.00 | 0.00 | 0.00 | 44 | 1009.5 |
| 20260503054004 | 55 | 240 | 2.0 | 8.0 | 0.00 | 0.00 | 0.00 | 45 | 1009.6 |
| 20260503053503 | 55 | 180 | 2.0 | 5.0 | 0.00 | 0.00 | 0.00 | 45 | 1009.8 |
| 20260503053007 | 55 | 198 | 1.0 | 4.0 | 0.00 | 0.00 | 0.00 | 45 | 1009.8 |
| 20260503052506 | 55 | 222 | 1.0 | 3.0 | 0.00 | 0.00 | 0.00 | 46 | 1009.9 |
| 20260503052003 | 55 | 225 | 0.0 | 3.0 | 0.00 | 0.00 | 0.00 | 46 | 1010.1 |
| 20260503051504 | 55 | 204 | 0.0 | 3.0 | 0.00 | 0.00 | 0.00 | 46 | 1010.0 |
| 20260503051004 | 55 | 195 | 0.0 | 2.0 | 0.00 | 0.00 | 0.00 | 46 | 1010.0 |
| 20260503050506 | 55 | 205 | 0.0 | 3.0 | 0.00 | 0.00 | 0.00 | 46 | 1010.0 |
| 20260503050003 | 55 | 180 | 1.0 | 3.0 | 0.00 | 0.00 | 0.00 | 46 | 1010.1 |
| 20260503045503 | 55 | 225 | 0.0 | 3.0 | 0.00 | 0.00 | 0.00 | 46 | 1010.1 |
| 20260503045006 | 55 | 242 | 0.0 | 3.0 | 0.00 | 0.00 | 0.00 | 46 | 1010.1 |
| 20260503044503 | 55 | 177 | 0.0 | 2.0 | 0.00 | 0.00 | 0.00 | 47 | 1010.1 |
| 20260503044003 | 55 | 246 | 0.0 | 1.0 | 0.00 | 0.00 | 0.00 | 46 | 1010.3 |
| 20260503043503 | 55 | 247 | 0.0 | 1.0 | 0.00 | 0.00 | 0.00 | 46 | 1010.4 |
| 20260503043009 | 55 | 247 | 0.0 | 1.0 | 0.00 | 0.00 | 0.00 | 45 | 1010.4 |
| 20260503042503 | 55 | 242 | 0.0 | 1.0 | 0.00 | 0.00 | 0.00 | 45 | 1010.4 |
| 20260503042003 | 56 | 242 | 0.0 | 1.0 | 0.00 | 0.00 | 0.00 | 45 | 1010.6 |
| 20260503041511 | 56 | 242 | 0.0 | 2.0 | 0.00 | 0.00 | 0.00 | 45 | 1010.7 |
| 20260503041005 | 56 | 242 | 0.0 | 2.0 | 0.00 | 0.00 | 0.00 | 45 | 1010.7 |
| 20260503040502 | 56 | 223 | 0.0 | 2.0 | 0.00 | 0.00 | 0.00 | 44 | 1010.9 |
| 20260503040012 | 56 | 225 | 0.0 | 3.0 | 0.00 | 0.00 | 0.00 | 44 | 1010.9 |
| 20260503035508 | 56 | 242 | 0.0 | 3.0 | 0.00 | 0.00 | 0.00 | 44 | 1011.0 |
| 20260503035003 | 56 | 232 | 0.0 | 2.0 | 0.00 | 0.00 | 0.00 | 44 | 1011.0 |
| 20260503034526 | 56 | 218 | 0.0 | 2.0 | 0.00 | 0.00 | 0.00 | 44 | 1011.0 |
| 20260503034010 | 57 | 230 | 0.0 | 2.0 | 0.00 | 0.00 | 0.00 | 44 | 1011.1 |
| 20260503033504 | 57 | 213 | 0.0 | 1.0 | 0.00 | 0.00 | 0.00 | 43 | 1011.2 |
| 20260503033003 | 57 | 213 | 0.0 | 2.0 | 0.00 | 0.00 | 0.00 | 43 | 1011.2 |
| 20260503032503 | 57 | 213 | 0.0 | 2.0 | 0.00 | 0.00 | 0.00 | 42 | 1011.3 |
| 20260503032003 | 57 | 209 | 0.0 | 2.0 | 0.00 | 0.00 | 0.00 | 42 | 1011.4 |
| 20260503031508 | 57 | 228 | 0.0 | 2.0 | 0.00 | 0.00 | 0.00 | 42 | 1011.5 |
| 20260503031003 | 57 | 196 | 0.0 | 2.0 | 0.00 | 0.00 | 0.00 | 42 | 1011.5 |
| 20260503030504 | 58 | 184 | 0.0 | 1.0 | 0.00 | 0.00 | 0.00 | 42 | 1011.6 |
| 20260503030013 | 58 | 184 | 0.0 | 3.0 | 0.00 | 0.00 | 0.00 | 41 | 1011.6 |
| 20260503025503 | 58 | 182 | 0.0 | 3.0 | 0.00 | 0.00 | 0.00 | 41 | 1011.6 |
| 20260503025003 | 58 | 213 | 0.0 | 4.0 | 0.00 | 0.00 | 0.00 | 41 | 1011.7 |
| 20260503024518 | 58 | 247 | 0.0 | 4.0 | 0.00 | 0.00 | 0.00 | 40 | 1011.7 |
| 20260503024011 | 58 | 238 | 1.0 | 4.0 | 0.00 | 0.00 | 0.00 | 40 | 1011.7 |
| 20260503023504 | 58 | 223 | 1.0 | 4.0 | 0.00 | 0.00 | 0.00 | 40 | 1011.7 |
| 20260503023011 | 59 | 242 | 0.0 | 4.0 | 0.00 | 0.00 | 0.00 | 40 | 1011.7 |
| 20260503022507 | 59 | 242 | 0.0 | 4.0 | 0.00 | 0.00 | 0.00 | 40 | 1011.8 |
| 20260503022005 | 59 | 247 | 1.0 | 4.0 | 0.00 | 0.00 | 0.00 | 39 | 1011.8 |
| 20260503021504 | 59 | 218 | 2.0 | 4.0 | 0.00 | 0.00 | 0.00 | 39 | 1011.8 |
| 20260503021004 | 59 | 192 | 1.0 | 4.0 | 0.00 | 0.00 | 0.00 | 39 | 1011.8 |
| 20260503020505 | 59 | 241 | 0.0 | 6.0 | 0.00 | 0.00 | 0.00 | 38 | 1011.8 |
| 20260503020005 | 59 | 218 | 1.0 | 6.0 | 0.00 | 0.00 | 0.00 | 38 | 1011.8 |
| 20260503015504 | 60 | 219 | 1.0 | 4.0 | 0.00 | 0.00 | 0.00 | 38 | 1011.7 |
| 20260503015003 | 60 | 198 | 1.0 | 3.0 | 0.00 | 0.00 | 0.00 | 38 | 1011.7 |
| 20260503014518 | 60 | 244 | 1.0 | 4.0 | 0.00 | 0.00 | 0.00 | 37 | 1011.7 |
| 20260503014004 | 60 | 261 | 1.0 | 4.0 | 0.00 | 0.00 | 0.00 | 37 | 1011.7 |
| 20260503013507 | 60 | 165 | 1.0 | 4.0 | 0.00 | 0.00 | 0.00 | 37 | 1011.6 |
| 20260503013020 | 60 | 237 | 1.0 | 3.0 | 0.00 | 0.00 | 0.00 | 36 | 1011.7 |
| 20260503012502 | 60 | 238 | 0.0 | 3.0 | 0.00 | 0.00 | 0.00 | 37 | 1011.6 |
| 20260503012009 | 60 | 232 | 1.0 | 4.0 | 0.00 | 0.00 | 0.00 | 36 | 1011.7 |
| 20260503011520 | 61 | 250 | 1.0 | 4.0 | 0.00 | 0.00 | 0.00 | 36 | 1011.7 |
| 20260503011010 | 61 | 231 | 1.0 | 4.0 | 0.00 | 0.00 | 0.00 | 35 | 1011.8 |
| 20260503010506 | 61 | 213 | 1.0 | 3.0 | 0.00 | 0.00 | 0.00 | 35 | 1011.8 |
| 20260503010008 | 61 | 205 | 1.0 | 3.0 | 0.00 | 0.00 | 0.00 | 35 | 1011.9 |
| 20260503005511 | 61 | 222 | 1.0 | 3.0 | 0.00 | 0.00 | 0.00 | 35 | 1011.8 |
| 20260503005004 | 61 | 234 | 0.0 | 4.0 | 0.00 | 0.00 | 0.00 | 34 | 1011.9 |
| 20260503004508 | 61 | 238 | 0.0 | 4.0 | 0.00 | 0.00 | 0.00 | 34 | 1011.8 |
| 20260503004003 | 61 | 225 | 0.0 | 4.0 | 0.00 | 0.00 | 0.00 | 34 | 1011.9 |
| 20260503003504 | 62 | 247 | 0.0 | 5.0 | 0.00 | 0.00 | 0.00 | 34 | 1011.9 |
| 20260503003009 | 62 | 221 | 0.0 | 5.0 | 0.00 | 0.00 | 0.00 | 33 | 1012.0 |
| 20260503002505 | 62 | 222 | 1.0 | 5.0 | 0.00 | 0.00 | 0.00 | 33 | 1012.0 |
| 20260503002007 | 62 | 227 | 2.0 | 5.0 | 0.00 | 0.00 | 0.00 | 33 | 1012.1 |
| 20260503001520 | 62 | 221 | 1.0 | 4.0 | 0.00 | 0.00 | 0.00 | 33 | 1012.1 |
| 20260503001006 | 62 | 201 | 0.0 | 4.0 | 0.00 | 0.00 | 0.00 | 33 | 1012.1 |
| 20260503000507 | 62 | 243 | 1.0 | 4.0 | 0.00 | 0.00 | 0.00 | 34 | 1012.2 |
| 20260503000031 | 62 | 202 | 0.0 | 5.0 | 0.00 | 0.00 | 0.00 | 35 | 1012.2 |
| 20260502235504 | 62 | 224 | 1.0 | 5.0 | 0.00 | 0.00 | 0.00 | 34 | 1012.3 |
| 20260502235006 | 62 | 171 | 2.0 | 8.0 | 0.00 | 0.00 | 0.00 | 32 | 1012.3 |
| 20260502234523 | 63 | 261 | 3.0 | 10.0 | 0.00 | 0.00 | 0.00 | 32 | 1012.3 |
| 20260502234004 | 63 | 205 | 2.0 | 10.0 | 0.00 | 0.00 | 0.00 | 32 | 1012.3 |
| 20260502233505 | 63 | 262 | 1.0 | 5.0 | 0.00 | 0.00 | 0.00 | 33 | 1012.4 |
| 20260502233013 | 63 | 234 | 0.0 | 5.0 | 0.00 | 0.00 | 0.00 | 33 | 1012.4 |
| 20260502232504 | 63 | 229 | 1.0 | 5.0 | 0.00 | 0.00 | 0.00 | 32 | 1012.5 |
| 20260502232007 | 63 | 279 | 1.0 | 2.0 | 0.00 | 0.00 | 0.00 | 33 | 1012.5 |
| 20260502231521 | 63 | 200 | 0.0 | 3.0 | 0.00 | 0.00 | 0.00 | 32 | 1012.6 |
| 20260502231008 | 63 | 290 | 0.0 | 4.0 | 0.00 | 0.00 | 0.00 | 32 | 1012.7 |
| 20260502230506 | 64 | 219 | 1.0 | 7.0 | 0.00 | 0.00 | 0.00 | 32 | 1012.7 |
| 20260502230012 | 64 | 236 | 2.0 | 7.0 | 0.00 | 0.00 | 0.00 | 31 | 1012.8 |
| 20260502225509 | 64 | 180 | 1.0 | 6.0 | 0.00 | 0.00 | 0.00 | 31 | 1012.9 |
| 20260502225005 | 64 | 213 | 0.0 | 7.0 | 0.00 | 0.00 | 0.00 | 32 | 1012.9 |
| 20260502224512 | 65 | 208 | 1.0 | 7.0 | 0.00 | 0.00 | 0.00 | 31 | 1012.9 |
| 20260502224007 | 65 | 337 | 1.0 | 7.0 | 0.00 | 0.00 | 0.00 | 31 | 1013.0 |
| 20260502223511 | 65 | 279 | 1.0 | 7.0 | 0.00 | 0.00 | 0.00 | 30 | 1013.1 |
| 20260502223027 | 65 | 223 | 2.0 | 6.0 | 0.00 | 0.00 | 0.00 | 31 | 1013.1 |
| 20260502222503 | 65 | 175 | 1.0 | 8.0 | 0.00 | 0.00 | 0.00 | 30 | 1013.1 |
| 20260502222009 | 65 | 113 | 1.0 | 9.0 | 0.00 | 0.00 | 0.00 | 30 | 1013.1 |
| 20260502221511 | 65 | 42 | 1.0 | 9.0 | 0.00 | 0.00 | 0.00 | 31 | 1013.1 |
| 20260502221003 | 66 | 200 | 1.0 | 7.0 | 0.00 | 0.00 | 0.00 | 31 | 1013.2 |
| 20260502220503 | 65 | 118 | 2.0 | 10.0 | 0.00 | 0.00 | 0.00 | 30 | 1013.2 |
| 20260502220006 | 65 | 260 | 3.0 | 10.0 | 0.00 | 0.00 | 0.00 | 30 | 1013.2 |
| 20260502215503 | 65 | 261 | 3.0 | 8.0 | 0.00 | 0.00 | 0.00 | 29 | 1013.2 |
| 20260502215003 | 65 | 267 | 1.0 | 9.0 | 0.00 | 0.00 | 0.00 | 31 | 1013.4 |
| 20260502214502 | 65 | 259 | 2.0 | 9.0 | 0.00 | 0.00 | 0.00 | 30 | 1013.5 |
| 20260502214002 | 66 | 206 | 1.0 | 8.0 | 0.00 | 0.00 | 0.00 | 30 | 1013.6 |
| 20260502213504 | 66 | 57 | 1.0 | 8.0 | 0.00 | 0.00 | 0.00 | 31 | 1013.6 |
| 20260502213006 | 66 | 233 | 1.0 | 6.0 | 0.00 | 0.00 | 0.00 | 30 | 1013.6 |
| 20260502212503 | 66 | 324 | 2.0 | 9.0 | 0.00 | 0.00 | 0.00 | 28 | 1013.8 |
| 20260502212004 | 67 | 327 | 3.0 | 9.0 | 0.00 | 0.00 | 0.00 | 30 | 1013.9 |
| 20260502211523 | 66 | 352 | 1.0 | 6.0 | 0.00 | 0.00 | 0.00 | 30 | 1013.9 |
| 20260502211003 | 66 | 181 | 1.0 | 5.0 | 0.00 | 0.00 | 0.00 | 31 | 1013.9 |
| 20260502210504 | 66 | 211 | 1.0 | 7.0 | 0.00 | 0.00 | 0.00 | 31 | 1014.0 |
| 20260502210009 | 66 | 284 | 1.0 | 9.0 | 0.00 | 0.00 | 0.00 | 28 | 1014.2 |
| 20260502205505 | 67 | 200 | 3.0 | 9.0 | 0.00 | 0.00 | 0.00 | 28 | 1014.2 |
| 20260502205003 | 66 | 186 | 1.0 | 9.0 | 0.00 | 0.00 | 0.00 | 27 | 1014.3 |
| 20260502204502 | 67 | 34 | 1.0 | 9.0 | 0.00 | 0.00 | 0.00 | 30 | 1014.4 |
| 20260502204004 | 66 | 196 | 2.0 | 6.0 | 0.00 | 0.00 | 0.00 | 28 | 1014.5 |
| 20260502203504 | 65 | 82 | 1.0 | 6.0 | 0.00 | 0.00 | 0.00 | 29 | 1014.6 |
| 20260502203006 | 65 | 18 | 2.0 | 6.0 | 0.00 | 0.00 | 0.00 | 30 | 1014.7 |
| 20260502202506 | 64 | 331 | 1.0 | 6.0 | 0.00 | 0.00 | 0.00 | 33 | 1014.8 |
| 20260502202003 | 65 | 41 | 1.0 | 9.0 | 0.00 | 0.00 | 0.00 | 30 | 1014.8 |
| 20260502201503 | 65 | 131 | 3.0 | 9.0 | 0.00 | 0.00 | 0.00 | 28 | 1015.0 |
| 20260502201003 | 65 | 270 | 3.0 | 9.0 | 0.00 | 0.00 | 0.00 | 28 | 1015.0 |
| 20260502200503 | 65 | 221 | 1.0 | 5.0 | 0.00 | 0.00 | 0.00 | 28 | 1015.1 |
| 20260502200014 | 65 | 335 | 1.0 | 5.0 | 0.00 | 0.00 | 0.00 | 31 | 1015.2 |
| 20260502195503 | 64 | 173 | 1.0 | 5.0 | 0.00 | 0.00 | 0.00 | 27 | 1015.3 |
| 20260502195003 | 65 | 222 | 1.0 | 5.0 | 0.00 | 0.00 | 0.00 | 28 | 1015.4 |
| 20260502194517 | 65 | 41 | 0.0 | 9.0 | 0.00 | 0.00 | 0.00 | 33 | 1015.3 |
| 20260502194005 | 65 | 294 | 3.0 | 9.0 | 0.00 | 0.00 | 0.00 | 29 | 1015.4 |
| 20260502193504 | 64 | 269 | 2.0 | 9.0 | 0.00 | 0.00 | 0.00 | 35 | 1015.5 |
| 20260502193003 | 64 | 237 | 3.0 | 9.0 | 0.00 | 0.00 | 0.00 | 28 | 1015.6 |
| 20260502192504 | 64 | 272 | 3.0 | 8.0 | 0.00 | 0.00 | 0.00 | 28 | 1015.7 |
| 20260502192003 | 64 | 244 | 1.0 | 7.0 | 0.00 | 0.00 | 0.00 | 30 | 1015.8 |
| 20260502191514 | 63 | 150 | 1.0 | 7.0 | 0.00 | 0.00 | 0.00 | 30 | 1015.8 |
| 20260502191006 | 63 | 299 | 1.0 | 8.0 | 0.00 | 0.00 | 0.00 | 33 | 1015.9 |
| 20260502190503 | 62 | 222 | 1.0 | 10.0 | 0.00 | 0.00 | 0.00 | 30 | 1016.1 |
| 20260502190014 | 62 | 262 | 1.0 | 10.0 | 0.00 | 0.00 | 0.00 | 31 | 1016.2 |
| 20260502185506 | 62 | 164 | 3.0 | 7.0 | 0.00 | 0.00 | 0.00 | 29 | 1016.2 |
| 20260502185008 | 61 | 227 | 2.0 | 5.0 | 0.00 | 0.00 | 0.00 | 29 | 1016.3 |
| 20260502184505 | 62 | 220 | 1.0 | 7.0 | 0.00 | 0.00 | 0.00 | 28 | 1016.4 |
| 20260502184004 | 63 | 88 | 2.0 | 7.0 | 0.00 | 0.00 | 0.00 | 31 | 1016.5 |
| 20260502183509 | 62 | 216 | 1.0 | 9.0 | 0.00 | 0.00 | 0.00 | 31 | 1016.6 |
| 20260502183022 | 62 | 125 | 1.0 | 10.0 | 0.00 | 0.00 | 0.00 | 31 | 1016.8 |
| 20260502182502 | 62 | 228 | 1.0 | 10.0 | 0.00 | 0.00 | 0.00 | 31 | 1016.8 |
| 20260502182008 | 61 | 157 | 4.0 | 10.0 | 0.00 | 0.00 | 0.00 | 29 | 1016.9 |
| 20260502181506 | 61 | 270 | 2.0 | 10.0 | 0.00 | 0.00 | 0.00 | 34 | 1016.9 |
| 20260502181005 | 61 | 213 | 4.0 | 10.0 | 0.00 | 0.00 | 0.00 | 31 | 1016.8 |
| 20260502180503 | 61 | 162 | 2.0 | 9.0 | 0.00 | 0.00 | 0.00 | 32 | 1017.0 |